Retour au catalogue

CENTAURI-7

ActifCommunicationsSSO
NORAD 62708·PAYLOAD·🇦🇺 Australia

Lancé Jan 14, 2025 depuis Vandenberg Space Force Base

Loading…

Prochains Passages (prochaines 24 heures)

TLE

FraisSource: Space-Track

Époque: Sep 14, 2026, 03:58 UTC

1 62708U 25009DD  26257.16548882  .00003120  00000-0  26716-3 0  9994
2 62708  97.7031 336.3148 0001107 120.2314 239.9019 14.98290471 90784

Suivez CENTAURI-7 en temps réel avec AllMySat

Download on the App Store